Location: Observatorio Las Palmas
(29.0667°N, 110.9333°W)
Time: 11:12:47
(UTC-07:00)

Skynet4D Del rocket - Visible Passes

Search period start: 12 February 2016 00:00
Search period end: 22 February 2016 00:00
Orbit: 763 x 1291 km, 26.9° (Epoch: 10 February)

Date Brightness Start Highest point End Pass type
(mag) Time Alt. Az. Time Alt. Az. Time Alt. Az.
16 Feb 6.1 06:20:45 10° S 06:23:57 15° SSE 06:27:19 10° ESE visible
18 Feb 5.9 05:50:28 10° SSW 05:54:04 18° SSE 05:57:51 10° ESE visible
19 Feb 5.1 06:30:13 10° SW 06:35:04 33° SSE 06:40:21 10° E visible
20 Feb 5.5 05:20:36 11° SSW 05:24:13 21° SSE 05:28:20 10° ESE visible
21 Feb 6.1 04:14:12 12° SE 04:14:12 12° SE 04:15:28 10° SE visible
21 Feb 4.7 06:00:23 10° SW 06:05:18 37° SSE 06:10:31 10° E visible
